Location: Frydek-Mistek
(49.6830°N, 18.3330°E)
Time: 09:18:20
(UTC+02:00)

ISS - Visible Passes

Search period start: 20 October 2021 00:00
Search period end: 30 October 2021 00:00
Orbit: 417 x 423 km, 51.6° (Epoch: 20 October)

Date Brightness Start Highest point End Pass type
(mag) Time Alt. Az. Time Alt. Az. Time Alt. Az.
21 Oct -0.6 06:15:34 10° SSE 06:16:59 12° SE 06:18:24 10° ESE visible
23 Oct -1.7 06:16:15 10° SSW 06:19:08 27° SE 06:22:02 10° E visible
24 Oct -1.3 05:29:55 11° S 05:32:10 19° SE 05:34:37 10° E visible
25 Oct -0.9 04:45:16 13° SE 04:45:18 13° SE 04:46:50 10° ESE visible
25 Oct -3.2 06:18:18 10° SW 06:21:34 55° SSE 06:24:52 10° ENE visible
26 Oct -2.7 05:33:31 30° SSW 05:34:34 39° SSE 05:37:45 10° E visible
27 Oct -1.5 04:48:39 23° ESE 04:48:39 23° ESE 04:50:34 10° E visible
27 Oct -3.8 06:21:40 16° WSW 06:24:14 84° NNW 06:27:38 10° ENE visible
28 Oct -3.8 05:36:44 61° SW 05:37:14 77° SSE 05:40:37 10° ENE visible
29 Oct -1.7 04:51:47 28° E 04:51:47 28° E 04:53:36 10° ENE visible
29 Oct -3.6 06:24:47 18° W 06:27:09 62° N 06:30:30 10° ENE visible
